Location: Kerguer�zec
(48.4509°N, 4.7600°W)
Time: 20:06:19
(UTC+00:00)

N. Korean satellite - Pass Details

Date: 12 March 2021
Orbit: 452 x 499 km, 97.2° (Epoch: 15 April)

Event Time Altitude Azimuth Distance (km) Brightness Sun altitude
Rises 04:30:05 0° 35° (NE) 2,559 11.1 -21.7°
Reaches altitude 10° 04:33:57 10° 77° (ENE) 1,683 10.5 -21.1°
Maximum altitude 04:34:38 10° 88° (E) 1,658 10.3 -21.0°
Drops below altitude 10° 04:35:19 10° 99° (E) 1,685 10.2 -20.9°
Sets 04:39:10 0° 141° (SE) 2,569 10.5 -20.3°
